Location: Devore Heights
(34.2372°N, 117.4156°W)
Time: 18:40:08
(UTC+00:00)

S-56A Canister/Altair - Pass Details

Date: 22 September 2024
Orbit: 636 x 2487 km, 38.9° (Epoch: 14 October)

Event Time Altitude Azimuth Distance (km) Brightness Sun altitude
Rises 08:09:33 0° 273° (W) 4,432 - -55.1°
Reaches altitude 10° 08:13:49 10° 253° (WSW) 3,806 - -54.9°
Maximum altitude 08:19:20 16° 219° (SW) 3,740 - -54.6°
Drops below altitude 10° 08:25:51 10° 187° (S) 4,618 - -54.2°
Sets 08:32:07 0° 169° (S) 5,911 - -53.8°
